Theta_e
303 303 303 303 303 302 302 303 304 308 314 317 319 320 320 320 321 321 321 322 321 321 321 321 321 320 321 320 320 319 318 317 316 315 314 313 306 297 297 297 297 297 297
304 304 304 304 304 303 302 303 304 305 311 315 316 319 319 321 319 321 320 321 321 321 320 320 319 319 319 319 318 318 317 316 315 313 308 298 296 297 296 296 296 297 297
303 303 304 304 305 304 304 303 305 308 310 313 315 317 317 318 317 319 318 321 319 320 317 316 317 319 318 317 316 315 314 308 301 298 296 296 296 296 296 296 296 296 296
302 303 304 305 305 305 305 305 306 308 310 312 314 315 315 316 318 318 318 318 318 317 317 316 317 317 316 314 313 304 299 297 296 296 296 296 295 295 295 296 296 296 296
300 302 304 305 305 306 306 307 307 308 310 311 312 315 314 315 316 317 315 316 316 316 316 315 314 314 311 302 297 296 296 296 296 295 295 295 295 295 295 295 295 295 296
300 303 303 304 305 305 306 308 308 309 311 311 312 312 314 314 314 314 314 314 313 313 313 311 308 300 297 296 296 296 296 295 295 295 295 295 294 294 294 294 294 294 294
295 301 303 303 304 305 305 306 307 308 309 310 311 311 311 311 312 312 312 311 309 305 300 298 296 296 295 295 295 295 295 294 294 294 294 294 294 293 293 293 292 293 293
294 300 301 303 304 304 304 304 306 306 307 308 308 308 308 309 306 303 302 300 298 297 296 295 295 295 295 294 294 294 294 294 294 294 294 293 293 293 292 292 292 292 292
294 299 298 298 300 299 300 302 303 304 303 304 303 302 301 300 298 297 297 296 296 295 295 295 294 294 294 294 293 293 294 294 293 293 294 293 292 292 292 292 292 292 292
294 296 296 295 294 294 294 295 300 302 299 298 300 300 297 296 295 295 294 294 294 294 294 294 294 293 293 293 293 293 294 294 293 293 293 292 292 292 292 292 292 291 291
293 293 293 293 293 293 293 293 294 295 297 296 295 295 296 296 294 294 293 293 293 294 294 294 294 293 293 293 293 293 293 293 293 292 292 292 292 292 292 291 291 291 290
293 293 293 293 292 292 292 292 292 292 293 293 293 293 293 293 293 293 293 293 293 293 293 293 293 293 293 293 293 293 293 292 292 292 292 292 291 291 291 291 290 290 290
294 293 293 292 292 292 292 292 292 292 292 292 292 292 293 293 293 293 293 293 293 293 293 293 293 293 293 293 292 292 292 292 292 292 291 291 291 291 291 290 290 290 290
294 294 293 293 292 292 292 292 292 292 292 292 292 292 292 292 292 292 292 292 292 292 293 293 293 293 292 292 292 292 292 292 292 292 291 291 291 290 290 290 290 289 289
294 294 293 293 293 293 293 292 292 292 292 292 292 292 292 292 292 292 292 292 292 292 292 292 292 292 292 292 292 292 292 292 292 291 291 291 290 290 289 289 289 289 289
294 294 294 293 293 293 292 292 292 292 292 292 292 292 292 292 292 292 292 292 292 292 292 292 292 292 292 292 291 291 291 291 291 291 290 290 290 289 289 289 289 289 289
295 295 294 293 293 293 293 293 293 292 292 292 292 292 292 292 292 292 292 292 292 292 292 292 292 292 292 291 291 291 291 291 290 290 290 290 289 289 288 288 288 288 289
295 295 294 294 293 293 293 293 293 293 293 292 292 292 292 292 292 292 292 292 292 292 292 292 291 291 291 291 291 291 290 290 290 290 289 289 288 288 288 288 288 288 288
296 296 295 295 294 294 293 293 293 293 293 292 292 292 292 292 292 292 291 292 292 291 291 291 291 291 290 290 290 290 290 289 289 289 289 288 288 288 288 288 287 287 287
299 297 296 295 295 294 294 294 293 293 293 293 293 293 292 292 292 292 292 292 291 291 291 290 290 290 290 290 289 289 289 289 288 288 288 288 288 287 287 287 286 285 285
301 300 298 296 295 294 294 294 294 294 294 294 293 293 292 292 292 291 291 291 291 290 290 290 289 289 289 289 289 289 288 288 288 287 287 287 287 287 287 286 284 283 283
299 300 300 299 298 296 295 294 294 294 294 294 294 293 292 291 292 291 291 291 291 290 290 289 289 289 288 288 288 288 288 288 287 287 287 287 287 286 286 286 284 283 283
296 296 297 300 300 298 297 296 295 294 294 294 294 294 293 293 293 292 292 292 291 291 290 289 289 288 288 288 288 287 287 287 287 286 286 286 286 286 286 286 285 285 283
296 296 296 296 299 300 299 298 298 297 296 295 294 293 293 293 293 293 293 292 291 290 290 289 289 289 288 288 287 287 286 286 286 286 286 285 285 285 285 285 284 284 283
295 295 295 295 295 296 298 298 298 297 296 296 295 294 293 293 293 293 293 293 292 291 290 290 289 289 288 287 287 286 286 286 286 285 285 285 284 285 285 285 285 284 283
297 297 297 295 294 294 295 295 296 297 297 297 297 296 295 294 293 292 292 292 293 292 291 290 289 289 288 287 287 286 286 285 285 285 284 284 284 283 283 284 284 284 283
Wind_Speed
8 8 7 5 5 6 8 13 15 16 17 15 18 19 12 12 10 10 10 12 13 12 12 15 12 10 10 9 10 11 11 11 12 14 16 16 15 14 14 15 16 16 16
8 8 7 6 4 3 1 4 10 12 12 13 13 11 10 14 8 10 9 10 10 8 6 8 6 8 7 9 8 8 9 8 9 12 11 9 9 9 11 12 13 13 11
8 6 6 5 4 4 4 4 6 7 8 9 10 9 6 7 7 9 7 13 9 5 1 2 6 6 7 9 9 6 6 6 4 4 4 5 7 7 7 9 10 11 11
7 8 6 6 6 5 5 7 9 10 10 10 11 7 6 6 8 7 6 7 6 4 8 6 8 8 7 5 5 4 2 1 1 1 3 4 6 8 10 12 12 13 11
9 7 6 6 6 7 7 8 10 11 11 11 11 10 8 6 9 9 6 9 8 9 9 7 6 6 6 4 3 3 4 4 4 3 4 7 11 14 17 20 19 18 15
6 3 4 5 7 7 8 8 8 9 9 9 9 9 11 11 11 8 7 7 7 6 6 7 7 7 7 6 5 5 5 6 5 6 9 12 15 17 18 19 20 23 24
3 3 4 7 9 8 7 8 7 9 12 11 9 8 8 10 11 10 9 8 6 7 9 9 10 9 8 7 6 5 6 7 7 10 11 14 16 16 17 19 22 22 20
4 5 6 8 7 7 6 7 7 7 7 7 7 7 7 10 10 9 9 9 11 11 11 11 10 9 9 8 7 7 8 9 9 11 14 14 15 16 18 20 21 22 17
4 7 7 6 6 7 7 8 7 7 7 8 6 7 8 10 12 11 10 10 9 11 11 12 12 10 9 9 7 7 8 8 10 13 13 14 15 16 17 17 20 22 22
3 3 4 4 5 8 7 8 9 9 8 7 9 10 11 10 12 12 10 9 10 11 11 10 10 9 9 9 7 6 7 9 10 11 12 13 14 16 17 19 19 21 23
0 1 1 2 5 6 6 6 6 7 7 7 8 9 8 9 10 10 10 9 8 8 9 10 9 9 8 8 7 6 5 7 9 11 12 12 13 15 16 17 18 21 22
3 2 2 1 1 3 4 5 6 8 8 8 9 10 12 12 11 10 9 9 9 9 8 8 8 9 8 7 5 4 5 7 9 9 9 10 13 14 16 18 19 20 20
6 6 5 4 4 3 3 3 3 4 6 7 8 9 8 9 10 10 10 9 8 8 7 8 8 7 7 6 5 5 6 6 6 7 8 10 12 14 16 17 18 19 19
9 8 8 7 7 7 6 5 6 7 7 6 6 7 7 7 7 6 5 6 7 7 7 8 8 8 7 6 5 5 5 5 6 6 8 10 11 13 12 14 15 15 16
14 13 11 11 10 10 10 10 11 10 9 9 10 10 9 6 5 6 7 8 8 8 9 9 9 9 9 9 8 7 5 4 4 4 6 7 9 10 11 13 14 14 14
19 18 16 15 14 13 13 13 14 13 13 13 13 11 10 10 11 12 12 11 11 12 12 11 12 13 13 11 9 7 6 4 4 4 5 6 7 8 9 11 12 13 15
24 21 20 20 19 17 16 15 15 16 16 15 14 13 13 14 15 15 14 14 15 16 15 15 16 18 17 14 11 9 8 7 7 7 6 7 7 7 8 8 10 12 14
27 26 26 25 24 22 21 19 18 19 18 17 17 17 18 17 17 17 19 20 20 19 19 18 19 20 20 17 15 13 12 11 11 10 10 8 7 8 7 6 7 9 11
31 31 29 29 28 26 25 24 24 23 22 22 23 23 22 22 22 22 23 22 22 22 22 22 20 20 20 20 18 16 15 14 13 13 13 11 8 8 7 5 6 7 8
37 35 34 33 32 32 31 31 30 29 28 28 28 27 25 26 27 27 26 25 24 24 23 23 22 21 22 22 21 19 19 18 17 16 16 15 12 11 9 7 6 5 5
40 40 39 38 38 38 36 36 35 33 33 32 31 29 29 30 30 29 28 29 27 25 24 23 22 23 23 24 24 23 22 22 21 20 19 17 15 14 12 10 7 4 2
40 41 43 44 42 42 41 39 39 38 38 37 35 33 32 34 34 33 32 32 30 28 27 26 26 25 24 24 24 24 24 24 23 22 21 20 18 16 15 13 11 8 6
37 38 43 45 45 44 44 44 43 43 42 40 39 37 37 36 36 36 34 32 32 30 29 30 30 28 27 26 26 26 25 25 23 22 23 22 20 19 18 17 15 13 11
38 39 38 38 41 45 46 47 46 45 44 43 42 41 40 39 38 36 35 34 33 32 32 33 32 30 29 28 28 27 26 26 27 26 25 25 24 23 22 21 19 18 17
28 33 36 39 41 43 44 46 47 47 47 46 45 43 41 40 39 38 37 35 34 34 34 34 33 32 31 31 30 29 28 28 29 28 28 28 27 27 26 24 23 23 22
31 32 32 34 38 38 39 40 40 42 44 44 43 42 41 40 39 38 37 37 35 35 35 35 34 33 33 32 31 31 31 31 31 31 30 30 30 30 30 28 27 27 26
Wind_Direction
357 357 351 341 314 300 265 233 226 224 224 222 229 230 234 223 227 231 252 241 242 243 253 244 237 229 246 250 260 255 249 252 247 254 270 291 307 314 320 324 328 329 332
7 7 7 4 1 341 303 220 209 210 213 218 224 232 248 199 256 239 244 243 233 254 246 225 214 241 250 252 255 239 251 247 257 266 279 298 306 326 335 341 339 343 347
5 17 38 37 46 84 125 158 166 168 172 181 191 213 230 252 246 234 238 239 239 197 200 324 305 254 247 243 230 261 263 273 275 274 295 334 338 349 358 1 359 7 11
7 6 36 48 55 92 101 129 134 142 153 170 189 204 205 220 200 226 181 200 180 257 239 222 250 249 244 260 264 257 241 164 56 357 11 10 11 20 14 15 26 21 26
13 354 39 60 66 81 94 121 134 148 157 168 172 163 172 164 158 155 181 191 185 199 210 203 202 222 233 209 169 164 126 102 92 87 62 41 32 27 28 22 16 20 18
40 14 51 76 82 87 97 130 131 132 139 153 167 173 166 174 172 175 195 205 191 191 190 179 189 177 176 164 144 132 103 94 85 72 58 46 40 33 28 25 17 20 21
35 110 104 105 94 80 89 103 113 140 144 150 176 169 180 191 188 185 186 184 181 180 166 159 160 149 146 131 119 113 106 92 76 63 56 52 43 34 30 30 25 21 26
45 111 121 107 118 115 107 106 111 134 145 151 158 159 175 172 168 164 170 166 164 159 155 143 140 145 135 124 118 112 96 79 71 60 52 46 45 36 31 29 26 20 24
55 115 112 118 122 123 141 157 147 142 154 153 147 122 139 157 140 140 154 165 164 152 150 148 145 138 132 123 107 90 82 72 62 54 46 39 37 36 34 30 27 22 25
77 119 127 111 104 96 101 106 119 126 130 140 159 155 153 152 155 147 153 159 164 153 146 139 134 134 123 113 105 85 64 61 56 50 43 37 34 32 32 29 26 26 24
26 104 111 117 99 100 100 106 123 132 146 138 140 147 153 153 157 148 142 151 155 148 151 145 144 141 123 106 95 83 79 72 60 51 43 39 37 34 32 30 28 27 24
288 261 252 239 122 120 130 141 138 137 146 146 143 154 158 160 159 154 161 158 167 165 158 158 159 143 128 121 124 125 96 73 61 54 49 48 46 41 35 29 28 27 22
277 277 254 236 230 226 193 167 164 160 158 158 158 161 165 166 170 170 170 175 183 170 176 174 165 148 147 153 148 123 98 89 81 72 65 60 56 48 41 36 29 26 26
245 257 260 247 234 231 226 218 210 205 200 183 180 179 183 186 182 173 180 198 203 202 197 196 183 177 178 176 171 160 142 116 94 78 69 68 64 61 57 54 44 32 24
247 246 247 250 245 235 228 225 222 217 209 201 203 202 197 193 203 210 214 217 222 223 221 217 213 210 207 206 201 189 172 150 127 111 98 86 78 68 64 61 57 53 47
244 244 247 248 247 245 240 235 231 227 224 221 219 218 217 215 215 216 221 225 230 236 238 239 239 236 228 224 220 211 212 213 201 176 148 125 108 92 79 73 67 61 58
244 243 243 244 244 246 246 245 244 242 238 237 237 234 232 232 230 229 227 230 236 241 243 245 248 247 242 235 232 231 234 240 238 227 204 171 149 119 100 82 65 60 60
247 245 243 243 243 243 243 244 242 244 245 244 244 243 243 242 244 246 245 241 241 244 246 249 252 254 253 246 243 242 242 243 244 237 226 204 175 150 138 116 92 76 67
247 247 247 248 248 248 246 244 243 243 243 242 242 243 244 246 248 248 250 253 253 253 252 251 252 255 259 256 250 246 244 242 238 238 233 221 203 186 169 156 128 104 88
247 248 247 247 248 247 246 246 245 245 247 246 247 247 246 246 247 249 251 253 254 254 253 254 253 252 253 252 249 245 243 241 237 234 233 226 215 206 201 187 161 131 108
251 251 250 249 246 246 247 248 250 250 251 251 252 251 250 251 253 252 253 253 253 254 255 256 255 254 253 251 248 246 241 237 234 232 232 229 224 217 212 207 201 203 204
251 251 250 250 251 250 251 252 252 252 253 253 253 252 250 250 253 253 252 252 253 253 252 252 251 251 252 252 251 247 242 240 237 234 234 232 229 226 223 223 226 233 246
252 254 251 249 250 251 252 252 252 253 255 256 256 255 253 253 254 256 257 257 257 255 252 250 251 251 250 250 248 246 244 243 241 237 236 235 234 234 232 233 237 243 248
247 249 253 254 251 250 251 253 253 254 255 255 256 256 256 257 257 258 259 258 256 255 252 250 250 250 249 248 247 246 243 238 236 235 235 237 238 237 237 239 243 247 250
250 247 248 252 252 252 252 253 255 256 256 256 257 258 258 258 258 257 259 257 255 253 251 250 249 249 248 247 246 246 243 240 240 239 238 240 240 241 242 243 245 249 250
249 251 252 252 254 256 258 258 259 260 261 261 259 259 259 258 257 257 256 256 255 253 251 250 249 248 247 246 245 243 242 241 240 240 240 241 241 242 244 245 248 250 252